Location: George Washington National Forest Helicopter Landing Site
(38.6463°N, 79.0851°W)
Time: 19:24:54
(UTC-04:00)

Tiros 1 despin weight - Pass Details

Date: 26 August 2019
Orbit: 594 x 643 km, 48.2° (Epoch: 17 October)

Event Time Altitude Azimuth Distance (km) Brightness Sun altitude
Rises 02:13:33 0° 293° (WNW) 2,841 - -39.2°
Reaches altitude 10° 02:16:13 10° 307° (NW) 1,946 - -39.0°
Maximum altitude 02:19:50 24° 2° (N) 1,279 - -38.8°
Drops below altitude 10° 02:23:30 10° 56° (NE) 1,970 - -38.6°
Exits shadow 02:24:10 - 61° (ENE) 2,181 ? -38.5°
Sets 02:26:13 0° 70° (ENE) 2,885 ? -38.4°
